This demonstration page uses our WeatherBlox Daily Observations layout. Learn more.

Left ArrowRight Arrow

39.01783, -85.05884

Hourly Observations for June 13, 2017

Temp ( °F °C ) Dew Point ( °F °C ) Humidity (%) Winds ( mph kmh ) Pressure ( in mb ) Visibility ( mi km ) Precip ( " mm )
12:52 am 00:52 Mostly Clear 76 24.4 70 21.1 82 82 SSW 7 11 30.02 1017 10 16 0.00 0.00
1:52 am 01:52 Clear 75 23.9 70 21.1 84 84 SSW 7 11 30.01 1016 10 16 0.00 0.00
2:52 am 02:52 Mostly Clear 74 23.3 70 21.1 88 88 SSW 8 13 30.00 1016 10 16 0.00 0.00
3:52 am 03:52 Mostly Clear 75 23.9 70 21.1 84 84 SW 6 9 30.00 1016 10 16 0.00 0.00
4:52 am 04:52 Partly Cloudy 74 23.3 70 21.1 88 88 NW 6 9 30.01 1016 10 16 0.00 0.00
5:52 am 05:52 Mostly Cloudy 71 21.7 69 20.6 94 94 S 6 9 30.02 1017 8 13 0.00 0.00
6:52 am 06:52 Cloudy 73 22.8 70 21.1 90 90 SW 3 6 30.03 1017 10 16 0.00 0.00
7:52 am 07:52 Mostly Cloudy 75 23.9 71 21.7 88 88 SSW 6 9 30.03 1017 9 14 0.00 0.00
8:52 am 08:52 Partly Cloudy 79 26.1 71 21.7 77 77 SW 6 9 30.04 1017 10 16 0.00 0.00
9:52 am 09:52 Mostly Cloudy 83 28.3 72 22.2 70 70 WSW 8 13 30.05 1018 10 16 0.00 0.00
10:52 am 10:52 Mostly Cloudy 85 29.4 72 22.2 65 65 WSW 10 17 30.02 1017 10 16 0.00 0.00
11:31 am 11:31 Mostly Cloudy with Thunderstorms 86 30 73 22.8 65 65 W 13 20 30.00 1016 9 14 0.00 0.00
11:44 am 11:44 Cloudy with Thunderstorms 79 26.1 66 18.9 65 65 NW 23 37 30.03 1017 8 13 0.00 0.00
11:52 am 11:52 Cloudy with Thunderstorms 79 26.1 66 18.9 65 65 WNW 24 39 30.03 1017 8 13 0.00 0.00
12:52 pm 12:52 Cloudy with Thunderstorms 71 21.7 67 19.4 87 87 WSW 5 7 30.05 1018 6 10 0.04 1.02
1:07 pm 13:07 Cloudy with Nearby Thunderstorms 71 21.7 68 20 90 90 WSW 5 7 30.03 1017 7 11 0.02 0.51
1:39 pm 13:39 Cloudy 72 22.2 69 20.6 91 91 Calm 30.03 1017 10 16 0.03 0.76
1:52 pm 13:52 Cloudy 73 22.8 69 20.6 87 87 E 3 6 30.04 1017 10 16 0.03 0.76
2:52 pm 14:52 Cloudy 75 23.9 70 21.1 84 84 ESE 9 15 30.02 1017 10 16 0.00 0.00
3:52 pm 15:52 Cloudy 76 24.4 70 21.1 82 82 S 8 13 30.00 1016 10 16 0.00 0.00
4:52 pm 16:52 Cloudy 79 26.1 71 21.7 77 77 WSW 5 7 29.98 1015 10 16 0.00 0.00
5:52 pm 17:52 Cloudy 79 26.1 73 22.8 82 82 SSW 6 9 29.98 1015 10 16 0.00 0.00
6:52 pm 18:52 Cloudy 79 26.1 72 22.2 79 79 W 7 11 29.98 1015 10 16 0.00 0.00
7:52 pm 19:52 Cloudy 77 25 73 22.8 88 88 S 7 11 29.97 1015 10 16 0.00 0.00
8:52 pm 20:52 Mostly Cloudy 73 22.8 71 21.7 94 94 S 5 7 29.96 1015 10 16 0.00 0.00
9:52 pm 21:52 Mostly Cloudy 71 21.7 70 21.1 96 96 S 8 13 29.99 1016 8 13 0.00 0.00
10:52 pm 22:52 Mostly Cloudy 72 22.2 70 21.1 94 94 S 6 9 29.99 1016 10 16 0.00 0.00
11:52 pm 23:52 Mostly Cloudy 71 21.7 69 20.6 94 94 SSW 3 6 29.99 1016 10 16 0.00 0.00

Powered by AerisWeather